Change the Weather History Date:

Tuesday, March 5, 2013

  Actual Average (KRPD) Record (KRPD)
Temperature  
Mean Temperature 22 °F -  
Max Temperature 26 °F 27 °F 40 °F (2009)
Min Temperature 15 °F 12 °F -24 °F (2015)
Degree Days  
Heating Degree Days 42    
Moisture  
Dew Point 20 °F    
Average Humidity 86    
Maximum Humidity 93    
Minimum Humidity 80    
Precipitation  
Precipitation 0.03 in - - ()
Sea Level Pressure  
Sea Level Pressure 30.08 in    
Wind  
Wind Speed 8 mph (NE)    
Max Wind Speed 17 mph    
Max Gust Speed 21 mph    
Visibility 5 miles    
Events Snow    
Averages and records for this station are not official NWS values.
T = Trace of Precipitation, MM = Missing Value Source: NWS Daily Summary

Daily Weather History Graph

Daily Weather History Graph

Search for Another Location

Airport or City:

Trip Planner

Search our weather history database for the weather conditions in past years. The results will help you decide how hot, cold, wet, or windy it might be!

Date:

Astronomy

Mar. 05, 2013 Rise Set
Actual Time 6:38 AM CST 6:00 PM CST
Civil Twilight 6:09 AM CST 6:30 PM CST
Nautical Twilight 5:34 AM CST 7:04 PM CST
Astronomical Twilight 5:00 AM CST 7:39 PM CST
Moon 2:04 AM CST (3/5) 11:27 AM CST (3/5)
Length of Visible Light 12h 21m
Length of Day
11h 22m
Last Quarter, 40% of the Moon is Illuminated
Mar 5
Last Quarter
Mar 11
New
Mar 19
First Quarter
Mar 27
Full
Apr 2
Last Quarter

Hourly Weather History & Observations

Time (CST) Temp. Windchill Dew Point Humidity Pressure Visibility Wind Dir Wind Speed Gust Speed Precip Events Conditions
12:35 AM 23.0 °F 12.4 °F 19.4 °F 86% 30.02 in 10.0 mi East 10.4 mph - N/A   Overcast
12:55 AM 23.0 °F 14.7 °F 19.4 °F 86% 30.02 in 10.0 mi East 6.9 mph - N/A Snow Light Snow
1:15 AM 23.0 °F 13.1 °F 19.4 °F 86% 30.01 in 10.0 mi East 9.2 mph - N/A Snow Light Snow
1:35 AM 23.0 °F 14.7 °F 17.6 °F 80% 30.01 in 10.0 mi East 6.9 mph - N/A Snow Light Snow
1:55 AM 23.0 °F 15.8 °F 17.6 °F 80% 30.00 in 10.0 mi East 5.8 mph - N/A Snow Light Snow
2:15 AM 23.0 °F 14.7 °F 17.6 °F 80% 30.00 in 5.0 mi East 6.9 mph - N/A Snow Light Snow
2:55 AM 23.0 °F 15.8 °F 17.6 °F 80% 29.99 in 4.0 mi East 5.8 mph - N/A Snow Light Snow
3:15 AM 23.0 °F 14.7 °F 17.6 °F 80% 29.99 in 3.0 mi ESE 6.9 mph - N/A Snow Light Snow
3:35 AM 23.0 °F 15.8 °F 19.4 °F 86% 29.99 in 2.5 mi ESE 5.8 mph - N/A Snow Light Snow
3:55 AM 23.0 °F 17.0 °F 19.4 °F 86% 29.99 in 1.8 mi East 4.6 mph - N/A Snow Light Snow
4:15 AM 23.0 °F 15.8 °F 19.4 °F 86% 29.99 in 2.5 mi East 5.8 mph - N/A Snow Light Snow
4:35 AM 23.0 °F 17.0 °F 19.4 °F 86% 29.99 in 1.8 mi ESE 4.6 mph - N/A Snow Light Snow
4:55 AM 21.2 °F 14.9 °F 19.4 °F 93% 30.00 in 1.8 mi ESE 4.6 mph - 0.01 in Snow Light Snow
5:15 AM 21.2 °F 16.4 °F 19.4 °F 93% 30.00 in 1.8 mi East 3.5 mph - N/A Snow Light Snow
5:35 AM 21.2 °F 16.4 °F 19.4 °F 93% 30.00 in 1.2 mi East 3.5 mph - N/A Snow Light Snow
6:35 AM 21.2 °F 14.9 °F 19.4 °F 93% 30.01 in 1.2 mi ENE 4.6 mph - 0.01 in Snow Light Snow
7:15 AM 23.0 °F 15.8 °F 21.2 °F 93% 30.01 in 1.8 mi ENE 5.8 mph - N/A Snow Light Snow
7:35 AM 23.0 °F 14.7 °F 21.2 °F 93% 30.01 in 1.0 mi ENE 6.9 mph - N/A Snow Light Snow
7:55 AM 23.0 °F 14.7 °F 21.2 °F 93% 30.02 in 1.2 mi ENE 6.9 mph - N/A Snow Light Snow
8:15 AM 23.0 °F 14.7 °F 21.2 °F 93% 30.02 in 2.5 mi ENE 6.9 mph - N/A Snow Light Snow
8:35 AM 23.0 °F 13.1 °F 21.2 °F 93% 30.02 in 1.0 mi NE 9.2 mph - N/A Snow Light Snow
8:55 AM 23.0 °F 13.1 °F 21.2 °F 93% 30.03 in 0.8 mi ENE 9.2 mph - N/A Snow Light Snow
9:15 AM 23.0 °F 11.7 °F 21.2 °F 93% 30.03 in 1.2 mi NE 11.5 mph - N/A Snow Light Snow
9:35 AM 23.0 °F 11.7 °F 21.2 °F 93% 30.03 in 1.5 mi ENE 11.5 mph 18.4 mph N/A Snow Light Snow
9:55 AM 23.0 °F 11.7 °F 19.4 °F 86% 30.03 in 1.2 mi ENE 11.5 mph - N/A Snow Light Snow
10:15 AM 23.0 °F 11.7 °F 19.4 °F 86% 30.03 in 1.2 mi ENE 11.5 mph - N/A Snow Light Snow
10:35 AM 23.0 °F 13.1 °F 21.2 °F 93% 30.03 in 1.5 mi NE 9.2 mph - N/A Snow Light Snow
10:55 AM 23.0 °F 12.4 °F 21.2 °F 93% 30.03 in 1.8 mi NE 10.4 mph - 0.01 in Snow Light Snow
11:15 AM 23.0 °F 12.4 °F 21.2 °F 93% 30.04 in 1.5 mi NE 10.4 mph - N/A Snow Light Snow
11:35 AM 23.0 °F 11.1 °F 21.2 °F 93% 30.05 in 3.0 mi NE 12.7 mph - N/A Snow Light Snow
12:15 PM 24.8 °F 16.9 °F 21.2 °F 86% 30.05 in 3.0 mi NNE 6.9 mph - N/A Snow Light Snow
12:35 PM 24.8 °F 14.6 °F 21.2 °F 86% 30.05 in 1.0 mi NNE 10.4 mph - N/A Snow Light Snow
12:55 PM 24.8 °F 16.1 °F 21.2 °F 86% 30.05 in 0.8 mi NNE 8.1 mph - N/A Snow Light Snow
1:15 PM 26.6 °F 16.8 °F 21.2 °F 80% 30.05 in 0.8 mi NNE 10.4 mph - N/A Snow Light Snow
1:35 PM 24.8 °F 14.0 °F 21.2 °F 86% 30.05 in 1.0 mi NNE 11.5 mph - N/A Snow Light Snow
1:55 PM 26.6 °F 18.2 °F 21.2 °F 80% 30.06 in 1.0 mi NNE 8.1 mph - N/A Snow Light Snow
2:15 PM 26.6 °F 16.8 °F 21.2 °F 80% 30.06 in 1.8 mi NNE 10.4 mph - N/A Snow Light Snow
2:35 PM 26.6 °F 18.2 °F 21.2 °F 80% 30.07 in 3.0 mi NNE 8.1 mph - N/A Snow Light Snow
2:55 PM 26.6 °F 17.5 °F 21.2 °F 80% 30.07 in 5.0 mi NNE 9.2 mph - N/A Snow Light Snow
3:15 PM 26.6 °F 16.8 °F 21.2 °F 80% 30.07 in 5.0 mi North 10.4 mph - N/A Snow Light Snow
3:35 PM 26.6 °F 15.7 °F 21.2 °F 80% 30.08 in 2.5 mi North 12.7 mph - N/A Snow Light Snow
3:55 PM 26.6 °F 18.2 °F 21.2 °F 80% 30.08 in 2.0 mi North 8.1 mph - N/A Snow Light Snow
4:15 PM 26.6 °F 17.5 °F 23.0 °F 86% 30.09 in 3.0 mi NNE 9.2 mph - N/A Snow Light Snow
4:35 PM 26.6 °F 18.2 °F 23.0 °F 86% 30.10 in 3.0 mi NNE 8.1 mph - N/A Snow Light Snow
4:55 PM 26.6 °F 16.8 °F 23.0 °F 86% 30.10 in 3.0 mi North 10.4 mph - N/A Snow Light Snow
5:15 PM 26.6 °F 18.2 °F 21.2 °F 80% 30.11 in 4.0 mi NNE 8.1 mph - N/A Snow Light Snow
5:35 PM 26.6 °F 15.2 °F 21.2 °F 80% 30.12 in 3.0 mi NNE 13.8 mph 20.7 mph N/A Snow Light Snow
5:55 PM 26.6 °F 16.2 °F 21.2 °F 80% 30.13 in 3.0 mi NNE 11.5 mph 18.4 mph N/A Snow Light Snow
6:15 PM 24.8 °F 13.4 °F 21.2 °F 86% 30.14 in 4.0 mi NNE 12.7 mph - N/A Snow Light Snow
6:35 PM 24.8 °F 11.5 °F 19.4 °F 80% 30.14 in 7.0 mi NNE 17.3 mph - N/A Snow Light Snow
6:55 PM 23.0 °F 11.7 °F 19.4 °F 86% 30.16 in 10.0 mi NNE 11.5 mph - N/A   Overcast
7:15 PM 23.0 °F 11.1 °F 19.4 °F 86% 30.16 in 10.0 mi North 12.7 mph - N/A   Overcast
7:35 PM 23.0 °F 11.1 °F 19.4 °F 86% 30.17 in 10.0 mi North 12.7 mph - N/A   Overcast
7:55 PM 23.0 °F 13.1 °F 19.4 °F 86% 30.17 in 10.0 mi North 9.2 mph 12.7 mph N/A   Overcast
8:15 PM 23.0 °F 11.1 °F 19.4 °F 86% 30.18 in 10.0 mi NNE 12.7 mph - N/A   Overcast
8:35 PM 23.0 °F 11.1 °F 19.4 °F 86% 30.18 in 10.0 mi North 12.7 mph 18.4 mph N/A   Overcast
8:55 PM 21.2 °F 11.7 °F 19.4 °F 93% 30.20 in 10.0 mi North 8.1 mph - N/A   Overcast
9:15 PM 21.2 °F 10.9 °F 19.4 °F 93% 30.20 in 10.0 mi North 9.2 mph - N/A   Overcast
9:35 PM 21.2 °F 10.1 °F 19.4 °F 93% 30.21 in 10.0 mi NNE 10.4 mph - N/A   Overcast
9:55 PM 21.2 °F 10.9 °F 19.4 °F 93% 30.21 in 10.0 mi North 9.2 mph - N/A   Overcast
10:15 PM 21.2 °F 12.6 °F 17.6 °F 86% 30.21 in 10.0 mi North 6.9 mph - N/A   Mostly Cloudy
10:35 PM 19.4 °F 9.5 °F 15.8 °F 86% 30.22 in 10.0 mi North 8.1 mph - N/A   Scattered Clouds
10:55 PM 19.4 °F 10.4 °F 14.0 °F 80% 30.22 in 10.0 mi North 6.9 mph - N/A   Scattered Clouds
11:15 PM 19.4 °F 11.5 °F 14.0 °F 80% 30.23 in 10.0 mi North 5.8 mph - N/A   Mostly Cloudy
11:35 PM 19.4 °F 10.4 °F 14.0 °F 80% 30.22 in 10.0 mi North 6.9 mph - N/A   Mostly Cloudy
11:55 PM 15.8 °F 7.2 °F 12.2 °F 86% 30.22 in 10.0 mi North 5.8 mph - N/A   Scattered Clouds